Location: Bastogne Gables
(35.1554°N, 78.9900°W)
Time: 03:39:56
(UTC+00:00)

Timation 2 Rocket - Pass Details

Date: 29 October 2020
Orbit: 904 x 1077 km, 70.0° (Epoch: 26 November)

Event Time Altitude Azimuth Distance (km) Brightness Sun altitude
Rises 22:48:29 0° 339° (NNW) 3,772 7.2 -5.7°
Reaches altitude 10° 22:51:04 10° 342° (NNW) 2,840 6.5 -6.2°
Maximum altitude 22:57:46 72° 66° (ENE) 1,113 4.2 -7.5°
Drops below altitude 10° 23:04:36 10° 151° (SSE) 2,900 6.3 -8.9°
Sets 23:07:15 0° 153° (SSE) 3,856 6.9 -9.4°
